GFSSE_sfc_temp_207.txt.gz
Temp
73 77 82 83 83 83 83 83 83 83 83 83 83 83 83 83 82 82 83 83 82 83 83 83 83 83 83 83 83 83 83 83 83 82 83 82 82 82 82 83 82 81 82
76 78 81 83 83 83 83 83 83 82 83 83 83 83 83 83 83 83 83 83 83 83 83 83 83 83 83 83 83 83 83 83 83 83 83 83 82 82 82 83 82 81 82
77 78 79 82 83 83 83 83 83 83 83 83 83 83 83 83 83 83 83 83 83 83 83 83 83 83 83 82 83 83 83 82 82 82 81 76 77 82 82 82 82 82 81
76 76 77 82 82 83 83 82 83 83 83 83 83 83 83 83 83 83 83 83 83 83 83 83 83 83 83 83 83 82 81 80 81 81 76 75 77 81 81 83 82 82 81
74 76 78 82 82 83 82 82 82 83 82 83 83 83 83 83 83 83 83 83 83 83 83 83 83 83 83 83 82 79 80 80 79 78 74 72 71 80 81 83 82 81 80
75 77 81 82 83 83 82 82 82 82 83 83 83 83 83 83 83 83 83 83 83 83 83 81 84 84 84 84 80 79 80 80 79 75 73 74 72 79 80 83 82 82 81
74 76 78 82 82 82 82 82 82 82 83 83 83 83 83 82 82 83 83 82 82 83 83 83 83 84 83 84 81 80 80 81 74 72 73 73 72 78 82 82 82 82 81
74 75 77 82 82 82 82 82 82 82 83 83 83 83 82 82 82 82 83 83 83 83 83 83 83 83 83 83 82 80 80 80 76 73 73 72 74 78 80 83 82 82 81
74 74 74 76 79 83 83 83 82 83 83 83 83 82 83 83 83 83 82 82 83 83 83 82 83 83 84 83 81 80 79 80 72 72 75 72 76 78 79 82 82 81 81
73 73 72 74 74 74 76 82 82 82 83 83 83 82 82 83 83 82 81 80 82 84 84 83 84 84 83 83 82 80 79 80 73 73 71 72 77 78 80 81 82 82 81
72 70 71 73 73 73 74 78 81 83 83 83 82 81 79 74 74 76 79 82 84 84 85 85 84 83 82 82 82 80 80 71 72 72 71 75 77 78 80 82 81 81 81
69 69 70 72 72 73 80 75 74 76 74 74 74 74 73 73 73 78 79 82 83 84 84 83 82 83 82 76 75 79 71 70 70 70 70 76 77 78 80 80 81 81 81
70 72 72 71 72 73 75 72 71 72 72 73 74 73 72 72 72 73 73 74 74 78 76 77 75 76 74 74 75 74 73 71 69 70 74 76 77 79 80 81 81 81 81
71 73 73 73 72 73 73 72 72 72 72 72 73 73 72 71 72 72 72 74 73 74 75 74 72 73 73 74 74 75 73 72 71 72 72 78 79 79 80 82 81 80 81
72 74 74 74 73 73 74 71 72 72 72 73 73 74 73 72 71 73 74 75 72 74 75 74 73 74 74 74 74 74 74 74 74 74 71 79 80 80 81 81 82 81 81
75 74 74 74 74 74 74 73 72 72 73 73 73 73 73 70 72 73 73 73 74 77 78 74 73 74 74 74 76 75 76 75 75 74 74 73 81 80 80 81 81 81 81
75 75 74 74 75 75 74 73 73 74 76 74 74 75 75 74 74 74 74 73 74 75 76 76 75 74 72 75 75 74 75 76 75 75 75 74 76 81 81 81 80 80 80
76 74 75 81 76 75 74 74 74 75 74 75 75 76 77 77 76 74 74 74 75 74 74 74 73 73 72 71 71 72 73 75 74 75 74 74 74 76 79 79 79 79 80
77 75 74 76 76 75 75 75 74 75 75 76 76 76 76 78 78 75 75 74 76 74 74 73 72 72 70 70 73 70 72 72 74 77 74 74 73 72 72 79 79 79 80
78 78 76 75 74 75 74 74 73 74 74 75 75 76 77 77 78 76 76 76 75 74 73 72 71 70 69 69 75 72 70 71 72 71 72 75 71 72 70 71 72 74 79
77 76 74 72 72 72 72 72 71 72 73 73 75 77 76 77 78 76 75 75 74 73 72 72 71 68 68 66 68 68 68 69 69 69 70 69 71 71 69 69 69 69 73
76 76 74 73 72 72 73 72 73 73 74 74 75 76 77 78 77 77 74 74 74 73 72 71 70 67 65 64 65 62 63 67 67 66 66 68 66 67 69 69 68 68 68
75 74 75 74 73 73 73 73 72 73 72 72 73 73 75 78 78 77 76 74 73 73 71 70 68 67 63 64 62 63 58 58 58 63 63 63 64 64 65 66 67 67 66
76 77 77 75 73 74 72 73 72 71 70 71 72 73 75 77 78 78 77 75 74 73 71 70 70 66 62 61 62 64 60 60 58 58 61 60 62 63 62 64 65 65 65
79 77 76 76 75 74 72 73 72 71 72 71 72 72 73 74 76 78 77 75 74 73 72 70 68 65 62 60 59 60 59 57 56 56 54 57 60 59 61 61 62 62 64
80 79 76 75 76 74 73 72 72 72 72 71 71 70 72 72 74 75 77 75 74 73 71 69 67 66 61 60 58 58 58 58 56 55 53 53 53 58 59 60 61 61 61

GFSSE_sfc_temp_210.txt.gz
Temp
73 76 81 83 83 83 83 83 83 83 83 83 83 83 83 83 83 83 83 83 83 83 83 83 83 83 83 83 83 83 83 83 83 83 83 82 82 83 83 82 81 83 82
75 78 81 82 83 83 83 83 83 83 83 83 83 82 82 83 83 83 83 83 83 83 83 83 83 83 83 83 83 83 83 83 83 83 83 83 82 82 82 83 82 83 82
76 77 79 81 83 83 83 83 83 83 83 83 83 82 83 83 83 83 83 83 83 83 83 83 83 83 82 83 83 83 83 82 83 82 81 79 81 82 82 83 82 82 81
76 76 77 81 82 82 82 83 83 83 83 83 83 83 83 83 83 83 83 83 83 83 83 83 83 83 83 83 82 82 82 82 82 81 77 78 82 81 82 83 82 82 81
74 76 78 82 82 82 82 82 83 82 83 83 83 83 83 83 83 83 83 83 83 83 83 83 83 83 83 83 82 81 81 81 81 78 75 75 74 81 82 82 82 81 81
74 77 81 82 83 83 82 82 82 83 83 83 83 83 83 83 83 83 83 83 83 83 82 83 84 84 84 84 81 80 81 81 78 76 74 77 75 80 81 83 82 82 81
74 76 78 82 82 82 82 82 82 82 83 83 82 82 83 82 82 82 82 82 82 82 82 83 83 84 84 84 81 81 81 82 74 74 75 76 77 80 82 82 82 82 81
74 75 77 81 82 82 82 82 82 82 83 83 83 82 82 82 82 82 82 82 83 83 83 83 83 83 83 84 83 80 80 81 77 74 75 74 77 79 81 82 82 81 81
74 74 74 76 79 82 83 82 82 83 83 83 83 83 82 83 83 83 83 82 82 83 83 84 83 83 83 84 81 81 80 80 74 74 76 74 78 79 80 81 82 81 81
73 72 73 74 74 75 77 82 82 82 82 82 82 82 82 81 82 82 79 79 82 84 84 85 85 84 83 83 79 80 80 81 75 75 74 75 78 79 81 81 82 82 81
72 70 72 73 72 73 75 78 81 82 83 83 81 80 77 75 76 78 80 82 83 85 85 85 84 83 82 82 82 80 80 74 75 74 73 76 77 79 80 81 81 81 81
69 69 70 72 72 74 79 76 76 76 76 75 76 75 75 75 75 79 79 81 83 83 83 83 83 83 82 78 77 80 73 73 72 73 73 77 77 79 80 80 81 81 81
69 70 70 71 73 73 74 73 72 72 73 74 76 74 74 74 74 74 75 76 77 80 78 78 77 78 77 77 77 77 75 75 73 74 75 77 77 79 80 80 80 80 81
70 71 72 72 72 73 73 73 72 73 73 74 74 74 73 73 73 74 75 76 75 77 78 77 76 76 76 76 76 77 77 76 74 75 76 78 79 79 80 81 81 81 81
70 72 72 73 72 73 73 72 72 73 74 74 74 75 75 74 73 74 75 75 75 77 78 77 76 77 77 77 77 77 78 78 79 78 77 79 80 80 81 82 81 81 80
72 72 74 73 73 74 73 73 73 73 74 75 75 75 75 73 74 75 75 76 76 78 78 76 76 76 77 77 77 78 78 79 79 79 79 77 80 80 81 82 81 81 80
72 74 73 73 74 73 74 74 74 74 76 74 75 76 76 76 76 75 76 75 76 77 77 77 77 76 75 78 77 78 78 78 79 78 79 80 80 81 81 81 80 80 79
74 73 74 79 75 74 74 74 74 76 75 75 76 77 78 78 77 76 76 77 77 76 76 76 76 75 74 73 74 75 76 77 77 78 79 79 79 80 80 80 79 79 79
74 73 73 75 75 75 74 74 75 76 76 76 77 77 78 79 78 77 77 77 77 76 75 75 74 73 72 71 75 74 75 76 78 79 78 78 78 78 78 79 79 79 79
74 74 74 74 74 74 74 74 74 74 75 76 77 77 79 78 79 78 78 77 77 76 75 75 71 70 71 71 75 72 72 74 75 76 77 79 77 76 76 77 78 79 79
75 73 73 72 72 72 72 72 73 74 74 75 76 78 78 78 79 77 77 77 77 76 74 75 73 69 69 69 71 71 71 72 72 72 74 75 76 76 74 75 76 76 78
74 74 73 73 72 72 73 73 74 73 74 75 76 77 78 78 78 78 76 76 76 76 74 72 72 70 68 67 69 67 66 71 71 70 70 72 72 73 74 74 74 74 74
73 73 74 73 72 72 73 73 73 73 73 74 74 75 77 78 79 78 77 76 76 75 74 72 72 70 68 67 65 67 64 65 65 68 68 68 67 69 70 72 73 73 72
74 76 75 73 72 73 72 73 73 72 71 72 74 74 76 78 79 79 78 77 76 75 74 73 72 69 67 67 67 65 63 65 65 65 67 66 66 67 67 70 71 71 71
76 76 76 73 72 73 72 73 73 72 72 72 73 75 74 76 78 80 78 77 76 76 74 72 70 67 66 65 65 65 63 63 62 63 63 64 66 66 67 68 70 70 70
77 77 76 73 73 72 72 72 73 72 72 72 73 73 73 74 76 78 78 77 77 75 74 72 70 67 65 64 64 63 64 64 63 62 61 60 61 65 66 67 68 68 69

GFSSE_sfc_temp_216.txt.gz
Temp
87 88 83 84 83 84 84 84 84 84 83 83 83 83 83 84 83 84 84 84 84 83 83 84 84 84 84 84 84 84 84 83 83 84 84 83 83 83 83 84 85 91 83
91 90 82 82 84 84 84 84 83 83 83 83 83 83 83 83 83 83 83 84 84 84 84 84 84 84 84 84 84 84 84 84 84 84 84 84 83 83 83 84 86 87 83
92 90 88 83 84 84 83 83 83 83 83 83 83 82 83 83 83 83 84 84 84 84 84 84 84 84 83 84 84 84 84 84 84 84 85 95 93 83 83 84 83 83 82
93 92 89 82 83 84 83 83 83 83 83 83 83 83 83 83 83 84 84 84 84 84 84 84 84 84 84 83 83 83 83 83 83 83 93 97 96 83 83 83 83 82 82
92 93 88 83 83 83 83 83 83 83 83 83 83 83 83 83 84 84 84 84 84 84 84 84 84 84 84 84 83 82 82 83 82 86 92 94 96 86 83 83 83 82 82
93 93 85 83 83 83 83 83 83 83 83 83 83 83 83 83 83 83 83 83 83 83 84 84 84 84 84 83 83 82 81 81 81 86 91 89 92 83 83 83 83 82 82
93 93 90 83 83 83 83 83 83 83 83 83 83 83 83 83 83 83 83 83 83 83 84 84 84 84 83 83 82 82 81 82 90 88 88 91 89 83 83 83 83 82 82
94 92 90 84 83 83 83 83 83 83 83 83 83 83 83 83 83 83 83 83 83 84 84 84 83 82 81 82 82 82 82 83 88 89 88 88 81 82 83 82 82 82 82
94 92 92 91 86 83 83 83 83 83 84 84 84 83 84 84 84 83 83 83 83 84 84 85 85 83 83 83 82 82 81 81 90 92 92 92 79 82 82 83 82 82 82
92 92 91 91 91 91 91 83 83 83 84 84 84 83 83 83 84 83 82 82 83 85 85 86 85 84 83 82 82 82 81 81 93 92 92 88 80 82 82 82 83 82 82
89 91 92 91 90 90 91 88 84 83 84 83 85 82 85 96 93 90 84 83 86 86 86 85 84 83 83 81 82 82 82 92 92 92 93 79 80 81 82 82 82 82 82
88 91 94 94 92 92 95 90 91 92 94 92 91 89 97 92 91 94 87 83 85 84 85 84 84 84 85 95 90 84 95 93 94 93 90 79 80 81 82 82 83 82 82
91 92 93 93 92 95 92 95 95 95 90 93 89 91 91 95 95 96 96 98 97 87 100 95 94 98 95 98 96 96 94 96 97 96 85 80 81 82 83 82 82 82 82
91 92 94 93 90 91 94 95 94 96 94 96 93 90 92 96 94 95 97 96 96 98 96 98 99 95 96 94 96 95 97 98 98 97 86 81 81 83 83 82 81 81 81
90 91 92 90 88 89 89 92 92 95 96 94 95 91 95 94 91 95 94 96 97 99 98 96 96 95 96 96 96 97 98 98 98 98 92 82 82 82 82 82 81 81 80
91 91 92 90 89 90 89 88 91 94 93 95 95 93 91 95 92 95 95 96 96 97 97 96 93 95 96 99 96 96 97 98 97 97 98 90 82 81 82 82 81 81 80
92 93 90 90 91 89 88 90 93 94 96 95 95 91 91 93 91 94 95 95 95 94 93 93 95 96 98 100 93 96 97 96 97 95 99 97 89 81 81 81 81 80 80
93 90 91 95 92 90 89 91 94 94 96 96 96 96 92 93 93 94 96 95 94 96 96 95 95 96 96 96 93 96 96 96 94 94 98 99 98 95 82 80 80 80 80
92 90 90 91 91 91 89 92 92 91 95 96 97 97 92 93 93 96 96 94 94 95 94 94 93 93 91 94 95 94 95 95 96 97 93 94 93 98 96 80 80 80 80
92 91 90 91 90 89 91 90 94 94 95 96 97 97 94 94 92 94 95 92 95 95 93 91 88 90 92 94 96 93 94 96 96 95 94 97 94 94 96 92 90 84 80
92 90 89 88 87 89 90 91 92 93 94 95 96 93 92 94 93 92 96 94 95 91 89 89 90 87 90 91 92 91 91 93 94 96 98 97 93 92 92 93 91 94 85
91 90 88 88 87 88 92 92 94 94 96 97 96 93 94 93 92 93 92 92 90 93 88 87 86 93 91 90 91 91 88 89 93 95 95 93 91 94 93 90 89 88 89
91 89 89 88 87 88 91 91 90 92 93 93 93 94 94 93 93 92 91 91 90 93 91 88 87 85 91 89 85 88 88 87 89 90 87 93 87 90 90 91 87 87 86
92 92 90 89 88 89 89 90 88 91 91 95 94 95 95 93 94 94 92 91 90 93 88 89 88 87 85 89 90 89 85 84 86 86 89 90 87 87 87 89 90 87 86
93 93 92 88 87 89 88 89 89 88 94 94 95 90 91 90 92 95 94 92 90 95 87 86 85 83 90 89 91 90 85 90 86 85 84 88 91 89 89 89 89 89 86
94 94 93 88 86 87 87 87 86 88 90 92 91 92 94 95 95 91 93 92 91 90 88 88 84 83 83 84 88 87 88 87 87 85 84 85 83 87 88 90 87 87 87

GFSSE_sfc_temp_219.txt.gz
Temp
88 88 83 84 84 84 84 85 84 84 84 84 84 84 84 84 83 84 84 84 83 83 84 84 84 84 84 84 84 84 84 84 84 84 84 83 83 83 84 85 86 90 83
92 91 83 84 84 84 84 84 83 83 83 83 83 83 84 84 83 83 84 83 84 84 84 84 84 84 84 84 84 84 84 84 84 84 84 84 84 84 84 84 86 86 83
93 91 89 84 84 84 83 83 83 83 83 83 83 83 83 83 83 83 84 84 84 84 84 84 84 84 84 84 84 84 84 84 84 84 84 90 90 84 84 84 83 83 83
92 89 91 83 84 83 83 84 84 84 83 83 84 84 84 84 84 84 84 84 84 84 84 84 84 84 84 84 84 84 84 83 83 84 87 85 93 83 84 83 83 83 82
87 89 88 83 84 84 83 83 83 84 83 83 83 84 84 84 84 84 84 84 84 84 84 84 84 84 84 84 83 83 83 83 83 85 92 89 85 85 83 83 83 83 83
96 94 85 83 84 84 82 83 84 83 83 84 84 84 84 84 84 84 84 84 84 84 84 84 84 85 84 83 83 82 82 83 83 92 93 92 84 83 84 84 84 83 82
95 93 89 83 83 83 83 84 83 83 84 84 84 84 84 84 84 84 84 84 84 84 84 84 84 83 82 83 83 82 82 83 91 91 91 89 87 83 84 84 83 82 82
97 94 90 84 83 83 83 83 83 84 84 84 84 84 84 84 84 84 84 84 84 84 84 83 82 81 81 82 83 82 82 85 92 88 89 89 82 83 83 83 83 82 82
97 94 93 89 86 84 84 83 83 84 84 84 84 84 84 84 84 84 84 83 84 84 85 83 81 82 83 82 83 82 82 84 92 93 94 89 81 83 83 83 82 82 82
96 97 95 92 92 91 90 84 84 84 84 84 84 84 85 85 85 85 84 84 84 86 86 86 85 84 83 82 82 82 82 84 94 92 91 86 82 83 83 83 83 83 82
94 96 96 94 92 92 91 89 84 84 85 85 85 85 86 84 94 91 86 84 86 86 86 85 84 83 83 82 82 83 83 93 94 95 91 80 82 83 83 83 83 83 83
92 95 97 96 95 93 92 88 86 90 84 89 90 93 85 93 95 96 90 86 86 86 85 85 84 83 85 91 89 84 93 94 94 93 87 80 81 82 83 83 83 83 83
94 96 97 97 95 93 90 88 85 97 92 93 92 93 94 96 91 91 95 94 93 87 92 90 85 88 87 95 87 97 96 98 98 94 85 81 82 82 82 82 82 82 81
94 96 98 96 94 90 96 87 93 87 85 92 94 92 92 97 94 91 94 96 93 97 95 76 93 92 96 97 92 98 97 96 92 94 85 82 82 83 82 82 81 81 81
94 95 96 93 92 92 94 94 91 96 98 96 96 94 90 96 79 95 91 94 94 92 96 95 95 91 86 96 91 90 93 92 91 94 89 82 82 81 82 82 81 81 80
94 94 95 92 92 92 91 91 93 97 95 98 98 95 93 94 93 80 93 98 98 87 91 96 91 94 86 91 96 98 91 96 95 92 93 88 82 81 82 82 81 80 80
96 96 92 92 93 91 90 91 95 96 100 98 95 94 94 94 94 84 98 98 98 95 93 94 95 96 99 99 96 98 99 99 99 97 90 90 85 81 81 81 81 80 80
96 93 93 97 94 92 92 93 97 98 99 99 99 97 94 93 93 84 98 96 97 98 98 96 96 96 97 97 96 96 98 98 96 97 96 83 90 87 82 80 80 80 80
95 93 91 94 93 93 91 94 95 94 99 100 100 99 95 94 96 95 98 96 96 97 96 96 95 95 93 96 96 97 97 97 95 99 96 96 95 94 88 81 80 80 80
95 93 92 93 92 92 93 93 96 96 98 100 100 98 96 96 95 93 95 96 97 96 94 91 89 94 96 96 99 96 96 98 98 96 96 96 95 95 95 88 84 83 80
95 92 91 90 89 91 92 93 94 94 97 98 98 95 94 96 95 94 98 96 93 92 90 90 91 89 93 94 93 93 93 95 95 98 99 97 94 94 92 93 90 90 84
93 91 90 89 88 90 93 94 96 97 98 98 98 94 95 95 95 94 94 94 92 91 89 88 87 93 92 92 91 91 87 90 94 97 95 94 92 94 94 92 90 89 89
93 91 90 89 89 90 93 94 93 96 95 95 94 94 95 94 95 94 93 93 92 95 91 89 89 87 91 90 87 88 87 86 91 91 89 93 87 90 91 92 90 88 88
94 94 92 90 89 90 92 92 90 92 91 95 96 96 95 95 94 95 94 93 91 94 90 90 89 89 85 89 91 91 87 85 84 85 90 89 89 89 87 89 90 89 87
96 94 93 90 89 90 90 91 91 90 96 97 98 91 93 92 94 97 95 93 92 95 88 87 86 84 91 90 91 91 86 91 86 85 84 88 92 91 91 90 89 90 88
97 96 94 89 88 89 89 88 89 89 92 94 94 92 94 96 94 93 94 93 93 91 90 89 86 84 84 85 89 89 89 87 87 86 85 86 85 89 91 91 89 89 88

GFSSE_sfc_temp_222.txt.gz
Temp
83 84 83 83 84 84 84 84 84 83 84 83 83 84 84 83 84 84 84 83 83 84 84 84 84 84 84 84 84 84 84 84 84 83 83 83 83 83 84 85 86 85 83
88 86 83 83 84 84 84 83 83 83 83 83 83 83 83 83 83 83 83 84 84 84 84 84 84 84 84 84 84 84 84 84 84 84 84 84 84 83 84 84 84 83 83
89 86 86 84 83 84 84 83 83 83 83 83 83 83 83 83 83 83 84 84 84 84 84 84 84 84 84 84 84 84 84 84 83 83 84 85 84 84 84 84 83 83 82
90 88 86 82 83 83 83 83 83 83 83 83 83 83 83 84 83 83 84 84 84 84 84 84 84 84 84 84 83 84 83 83 83 84 75 77 85 84 83 83 83 83 82
89 88 84 84 83 84 83 83 83 83 83 83 84 84 84 84 83 84 84 84 84 84 84 84 84 84 84 83 83 83 83 84 84 84 74 74 79 84 83 83 83 83 83
90 87 84 83 84 83 83 83 83 84 84 84 84 84 84 84 84 84 84 84 84 84 84 84 85 84 84 83 82 82 83 83 84 84 79 81 81 83 84 84 83 83 82
88 86 85 83 84 83 83 83 83 83 83 84 84 84 84 84 84 84 84 84 84 84 84 84 84 83 84 83 82 82 82 83 86 83 77 81 81 83 83 83 83 82 82
91 87 86 83 83 83 83 83 84 84 84 84 84 84 84 84 84 84 84 84 84 84 84 83 83 82 82 83 83 82 83 83 88 84 83 81 81 82 83 83 82 82 82
93 89 86 85 84 84 84 83 84 84 84 84 84 84 84 84 85 85 84 84 84 85 84 82 82 82 83 83 83 82 82 84 86 86 86 80 81 83 83 82 82 82 82
93 91 88 85 86 86 84 83 84 84 84 84 84 84 85 85 85 85 84 84 85 86 85 84 84 83 83 83 82 82 83 84 87 85 81 80 82 83 83 83 83 82 82
93 92 91 89 86 86 85 85 84 84 84 85 85 85 85 85 86 86 86 86 86 86 85 85 84 83 82 82 83 83 83 83 87 85 81 80 82 83 83 83 83 82 82
91 93 93 92 90 88 92 83 85 86 85 84 79 81 85 87 83 91 87 85 86 85 85 84 84 83 84 84 82 83 84 87 86 83 79 80 82 83 83 82 82 81 81
92 93 94 94 87 90 86 88 85 82 88 88 82 83 86 89 88 88 85 80 71 82 78 84 83 83 84 80 85 85 86 89 88 84 80 81 82 83 82 81 81 81 80
93 94 96 92 85 88 85 87 90 84 89 86 74 75 81 78 76 75 76 75 73 76 73 74 80 82 82 83 84 79 84 88 86 83 80 81 82 82 82 81 81 80 80
92 93 92 89 79 85 82 82 84 86 89 88 76 76 81 81 82 79 79 79 77 75 74 75 76 76 78 86 84 85 89 89 88 84 80 82 81 81 82 81 81 80 80
92 92 91 90 89 88 88 90 82 88 91 87 88 89 89 80 82 83 83 84 84 82 79 83 78 76 78 82 88 88 86 86 88 86 84 82 81 81 81 81 81 80 80
93 93 89 89 91 87 90 89 88 90 94 89 89 90 89 87 84 86 88 87 87 87 88 87 88 84 84 88 88 85 85 89 86 87 83 81 80 81 81 81 80 80 80
93 88 89 93 89 88 87 87 88 89 92 91 91 89 91 90 85 86 88 87 89 87 86 86 86 87 85 87 85 85 87 88 88 85 85 82 81 82 80 80 80 80 80
91 88 88 87 90 89 88 87 89 93 89 93 92 90 89 93 91 86 88 89 87 86 84 86 87 86 85 85 88 88 87 85 85 89 83 84 81 82 81 80 79 79 80
91 89 88 89 87 86 88 88 91 91 90 93 89 90 88 91 91 87 89 89 88 85 83 84 83 86 86 84 94 89 87 87 86 85 87 87 85 82 82 79 77 79 80
91 88 88 87 86 86 87 86 85 88 90 90 90 89 92 93 93 88 88 84 86 83 83 85 84 83 83 84 83 83 83 88 87 87 87 86 86 86 81 79 78 79 78
89 87 87 87 86 87 87 86 88 87 91 91 89 90 91 93 86 90 86 86 85 85 84 83 82 81 82 82 79 79 76 80 83 86 83 85 83 83 84 84 82 79 78
88 87 86 86 85 86 88 88 86 86 89 87 87 87 90 92 90 89 89 87 85 83 83 83 81 80 78 79 82 77 73 72 76 79 81 79 80 78 79 79 81 81 80
90 90 87 86 84 86 87 87 85 85 85 88 87 88 88 90 93 91 88 89 85 86 83 82 82 79 79 77 79 80 78 76 71 72 77 77 77 79 78 78 79 79 80
92 90 88 85 85 85 86 88 87 86 88 89 88 86 85 88 91 92 90 89 84 85 83 83 81 79 80 78 78 78 77 77 76 73 71 73 76 78 78 78 78 78 79
95 91 89 84 84 85 85 86 85 84 84 87 85 85 86 87 88 91 90 89 86 85 84 82 82 80 78 77 77 77 76 75 74 73 71 72 73 76 78 78 77 77 79

GFSSE_sfc_temp_225.txt.gz
Temp
76 79 83 83 84 84 84 84 83 83 83 83 83 83 83 83 83 83 83 83 84 84 84 84 84 84 84 84 84 84 84 83 84 84 84 84 83 84 83 84 84 83 83
79 81 82 83 84 84 83 83 83 83 83 83 83 83 83 83 83 83 84 84 84 84 84 84 84 84 84 84 84 84 84 84 84 84 84 84 84 83 84 84 83 83 83
80 81 83 82 83 83 83 83 83 83 83 83 83 83 83 83 83 84 83 84 84 84 84 84 84 84 84 84 84 84 84 83 83 79 80 78 82 84 84 83 83 82 82
81 79 80 82 83 83 83 83 83 83 83 83 83 83 83 83 83 84 84 84 84 84 84 84 84 84 84 84 84 84 83 83 79 77 73 76 82 83 83 83 83 83 82
80 80 81 83 83 83 83 83 83 83 83 83 83 84 84 83 84 84 84 84 84 84 84 84 84 84 84 83 83 83 82 83 81 76 73 74 74 83 83 83 83 83 82
81 82 82 83 83 83 83 83 83 83 83 83 84 84 84 84 84 84 84 84 84 84 84 84 84 84 83 83 83 83 83 84 79 74 73 75 77 83 83 83 83 82 82
79 79 81 83 83 83 83 83 83 83 83 83 84 84 84 84 84 84 84 84 84 84 84 84 84 84 84 83 83 83 82 83 77 75 75 78 79 82 83 83 82 82 82
80 79 81 83 83 83 83 83 83 83 84 84 84 84 84 84 84 84 84 84 84 84 84 83 83 84 83 83 83 82 83 84 83 79 78 77 80 82 83 82 82 82 82
82 79 78 78 82 83 83 83 84 84 84 84 84 84 84 84 84 84 84 84 84 84 83 83 82 82 83 83 83 83 83 84 81 80 81 77 80 82 83 82 82 82 82
81 80 78 77 77 77 78 83 83 84 84 84 84 84 84 84 85 85 83 83 84 84 84 83 83 83 83 83 83 83 83 84 80 79 77 78 81 83 83 82 82 82 82
82 81 79 78 76 76 77 81 82 84 84 84 84 85 83 78 79 82 82 84 85 85 85 84 83 83 83 83 83 83 83 78 80 78 76 80 81 83 82 82 82 82 82
80 80 81 80 78 79 85 80 77 82 78 75 73 75 77 76 75 83 84 84 83 84 84 84 83 83 82 78 78 82 78 80 79 77 76 80 81 82 82 81 81 81 80
84 84 82 82 81 82 82 77 76 76 76 72 74 73 74 75 74 76 74 72 70 78 75 81 79 79 79 77 78 77 78 79 78 78 79 80 81 82 82 81 80 80 80
82 84 83 82 80 80 80 78 79 78 77 73 73 74 74 70 73 72 71 70 69 73 72 73 75 77 77 80 81 78 80 80 76 75 77 81 81 82 82 81 80 80 79
81 81 80 84 78 80 81 77 80 78 78 75 74 74 77 73 73 72 70 70 73 74 71 72 73 76 75 79 82 80 82 81 80 77 75 82 81 81 81 81 80 80 79
82 81 81 81 80 81 79 80 77 76 83 74 75 76 78 75 76 72 71 72 74 74 74 75 74 75 74 78 80 84 82 81 80 78 78 79 81 80 81 81 80 80 80
82 83 80 81 81 80 80 80 79 80 86 80 80 82 82 81 81 79 77 78 78 75 75 77 76 76 77 79 80 81 83 82 81 80 78 77 78 80 80 80 80 80 79
82 81 82 88 81 80 78 80 82 80 80 81 81 82 83 83 80 80 79 80 79 80 79 79 78 77 77 78 79 78 80 83 81 80 79 78 77 78 80 80 79 79 79
82 81 80 82 81 80 80 82 81 82 84 81 81 82 82 85 86 80 82 80 78 77 77 78 77 78 79 78 80 81 79 80 80 83 78 78 76 76 75 79 79 79 80
82 81 80 84 80 80 79 79 80 83 81 83 81 81 84 83 84 81 82 80 78 76 77 77 77 78 80 78 87 81 79 78 78 77 78 81 77 77 76 75 75 76 80
82 80 79 82 78 77 77 76 79 77 82 84 82 83 83 84 85 82 81 79 77 75 76 77 76 76 76 76 75 75 77 78 79 77 79 77 77 78 76 75 73 73 76
81 80 79 81 78 78 77 78 78 79 82 82 80 82 83 83 83 83 79 79 79 77 75 75 74 72 73 74 72 71 70 74 74 76 75 77 75 77 77 76 74 74 73
80 80 78 80 80 79 79 80 80 81 82 77 78 79 82 84 83 82 81 79 78 77 73 73 73 72 70 71 73 71 67 66 67 72 72 73 73 72 73 75 75 75 73
82 83 78 80 78 80 79 78 80 83 77 77 77 78 80 84 86 84 82 81 78 77 74 73 74 72 70 69 70 73 69 68 66 65 70 70 71 73 72 72 74 76 73
84 83 81 78 77 78 78 78 79 82 79 78 78 78 78 80 84 87 82 81 78 77 76 74 71 70 69 69 69 69 68 68 67 65 63 67 69 70 71 73 72 73 74
85 84 82 78 78 77 78 78 78 81 78 77 77 77 77 79 80 82 83 80 79 77 76 74 73 71 69 69 68 68 68 67 66 66 64 64 66 69 70 71 71 72 72

GFSSE_sfc_temp_231.txt.gz
Temp
73 77 82 83 83 83 83 83 83 83 83 82 83 83 83 83 83 83 82 83 84 84 84 84 84 84 84 84 84 84 84 83 83 83 83 83 82 82 83 83 82 81 82
76 78 82 83 83 83 83 83 83 83 83 83 83 83 83 83 83 83 83 83 84 84 84 84 84 84 84 84 84 84 84 83 83 84 84 84 83 83 83 83 82 81 82
77 78 80 82 83 83 82 83 83 83 83 83 82 83 83 83 83 83 84 84 84 84 84 84 84 84 84 84 84 84 82 82 82 82 82 78 80 83 83 82 82 82 82
77 76 78 82 82 83 82 83 83 83 83 83 83 83 83 83 83 84 84 84 84 84 84 84 84 84 84 84 83 83 83 82 82 81 75 77 82 83 83 83 82 82 81
75 76 80 82 83 83 83 83 83 83 83 83 83 83 83 83 84 84 84 84 84 84 84 84 84 84 83 83 83 83 82 82 82 77 74 74 76 82 82 82 82 82 81
77 78 81 83 83 82 82 82 82 83 83 83 83 83 83 84 84 83 84 84 84 84 84 84 84 84 83 83 83 82 82 81 80 75 74 76 76 82 82 82 82 81 81
75 76 79 82 83 83 83 82 82 83 83 83 83 83 83 83 83 83 83 83 84 83 84 84 84 84 83 83 83 83 82 81 74 73 74 75 76 82 82 82 81 81 81
75 75 78 82 82 82 83 82 82 83 83 83 83 83 83 83 83 83 83 83 84 83 83 84 84 83 83 83 83 82 82 81 78 74 75 74 79 81 82 81 81 81 81
77 75 75 76 80 83 83 83 83 83 83 83 83 83 83 83 83 83 83 82 82 83 83 83 83 83 83 83 83 83 83 82 74 74 78 75 80 82 82 81 81 81 81
75 75 74 74 75 75 77 83 83 83 83 83 83 83 83 83 83 83 81 82 82 83 83 83 83 83 83 83 83 83 83 82 75 75 75 75 80 82 82 81 81 81 81
74 72 73 73 73 73 75 79 82 83 83 83 82 83 81 75 76 80 81 82 83 83 83 83 83 83 82 83 83 83 80 74 74 74 74 79 81 82 82 81 80 80 80
70 71 71 71 72 72 80 75 75 77 75 73 73 75 74 74 74 80 80 82 84 84 83 83 83 83 81 75 76 80 75 75 74 73 73 80 81 81 81 80 80 80 79
71 72 72 71 72 72 75 72 72 73 73 71 72 73 73 74 74 72 71 71 71 78 76 78 77 76 75 74 74 74 75 74 73 74 76 80 80 81 80 80 79 79 79
72 74 74 74 73 73 74 73 73 73 72 72 72 73 71 70 71 70 69 70 70 72 73 73 73 74 74 76 75 74 74 74 72 73 75 80 80 81 80 80 79 79 78
73 74 75 75 73 74 73 73 73 73 73 73 72 73 72 69 69 71 69 69 71 71 71 71 72 73 73 75 76 76 75 74 73 73 73 81 80 80 80 80 80 79 79
75 75 75 75 75 75 73 73 73 73 74 71 72 72 73 70 71 71 69 70 71 71 71 71 72 73 73 74 75 77 76 75 74 73 73 76 80 80 80 80 80 80 79
75 76 75 76 76 75 75 74 73 73 76 72 72 74 74 73 72 72 71 71 72 72 72 72 72 72 72 74 74 76 75 75 74 74 74 74 76 80 80 80 80 80 79
75 75 76 82 77 76 75 75 76 74 75 74 74 73 74 75 74 72 72 72 73 73 72 72 72 71 71 72 72 73 73 74 74 74 74 74 73 75 78 80 79 79 79
77 75 75 77 76 76 75 75 75 76 76 76 75 76 78 78 77 73 74 73 73 73 73 73 72 72 71 72 73 73 73 72 73 77 74 73 72 73 72 78 79 79 79
78 78 77 76 75 75 75 75 75 75 76 76 75 77 77 76 76 74 74 73 73 73 72 72 72 72 72 72 79 75 72 72 72 72 73 75 72 73 72 71 73 74 79
78 76 76 74 73 73 72 73 71 73 74 75 75 78 78 78 78 75 73 72 72 72 72 74 72 71 71 71 71 71 71 71 71 72 72 72 72 73 71 71 71 70 71
77 76 74 74 72 73 74 74 75 74 75 75 75 76 78 79 78 76 73 72 71 71 72 72 72 70 70 69 70 68 66 70 70 71 70 72 71 71 72 72 71 70 70
76 75 76 74 73 74 74 75 73 75 75 74 74 74 77 78 78 78 76 74 71 71 71 71 71 72 70 69 69 70 64 65 63 67 68 68 70 67 69 71 71 71 70
77 78 78 76 73 74 74 75 74 74 73 73 73 74 76 78 79 79 78 76 72 69 70 71 71 68 69 69 68 68 66 66 65 65 66 66 67 68 66 66 71 70 70
79 78 78 77 74 73 73 75 74 73 73 73 73 74 74 76 78 79 77 76 73 70 69 70 69 68 67 67 66 65 64 62 61 62 63 65 66 66 67 66 66 67 68
80 79 78 77 76 73 74 74 74 74 72 72 72 72 73 74 75 77 77 75 74 72 70 69 67 67 65 65 64 63 65 66 64 62 60 60 60 65 66 66 66 66 67

GFSSE_sfc_temp_234.txt.gz
Temp
72 76 82 83 83 83 83 83 83 83 83 83 83 83 83 83 83 83 83 84 84 84 84 85 84 84 84 84 84 84 84 83 83 83 83 83 83 83 83 83 82 83 82
75 78 81 82 83 83 83 83 83 83 83 83 83 83 83 83 83 83 83 84 84 84 84 84 84 83 84 84 84 84 84 83 84 84 83 84 83 83 83 83 82 83 82
76 77 80 82 83 83 83 83 83 83 83 83 83 83 83 83 83 83 83 84 84 84 84 84 84 84 83 83 84 83 82 82 83 83 82 82 83 83 83 83 82 82 82
76 76 77 81 83 82 82 83 83 83 82 83 83 83 83 83 84 84 84 84 84 84 84 84 85 84 84 83 83 83 83 82 81 80 77 80 84 83 83 82 82 81 81
74 76 78 82 83 83 83 82 82 82 83 83 83 83 83 83 84 84 84 84 84 84 84 84 84 84 83 83 83 83 82 82 81 78 77 78 81 83 82 82 82 82 81
75 78 81 83 83 83 82 82 83 82 83 82 83 83 83 83 83 83 83 83 84 84 83 84 84 83 83 82 82 82 81 81 79 77 77 80 80 82 82 82 82 81 81
74 76 79 82 83 82 83 82 82 82 83 82 83 83 83 83 83 83 83 83 83 83 83 83 84 84 83 83 83 82 81 81 76 76 77 78 81 81 82 81 81 81 81
74 75 78 82 82 83 82 82 83 83 83 82 83 83 83 83 83 83 83 83 83 83 83 83 83 83 83 83 83 82 82 81 78 77 78 79 80 81 81 81 81 81 81
75 75 75 77 80 83 83 83 83 83 83 83 83 83 83 83 83 83 83 83 83 83 83 83 83 83 83 83 83 82 82 80 78 78 80 79 80 81 82 81 81 81 81
74 74 74 74 76 76 78 83 83 83 83 83 83 83 83 83 83 83 82 82 83 83 83 83 83 83 83 83 83 83 82 80 79 78 78 80 80 82 81 81 81 80 80
73 73 73 73 73 74 76 80 82 83 83 83 83 83 82 77 76 78 82 83 83 83 83 83 83 83 82 83 83 82 80 78 78 78 79 80 81 81 81 80 80 80 80
70 71 71 72 72 74 79 76 76 78 76 75 75 76 76 76 76 80 81 84 83 83 83 83 83 83 79 78 79 79 78 78 78 78 78 80 81 81 80 80 80 79 79
70 71 71 71 72 73 75 73 73 74 73 72 74 75 75 75 74 72 73 74 76 80 78 79 78 78 77 78 78 78 78 78 78 78 79 80 80 81 80 80 79 79 79
70 71 72 72 72 72 73 73 74 74 72 72 74 74 73 73 72 71 71 72 73 75 75 75 76 76 77 78 78 78 77 78 77 78 78 80 80 80 80 80 79 79 79
70 72 73 73 72 73 73 73 73 74 74 74 74 74 73 72 72 72 70 72 72 73 74 74 75 76 76 78 79 78 78 78 78 78 78 81 80 80 80 80 80 79 78
72 73 74 74 73 74 73 73 73 74 75 73 73 73 74 71 71 72 70 72 73 74 73 75 75 76 76 77 78 79 79 78 78 78 79 80 80 80 80 80 80 79 79
73 74 74 74 75 74 73 74 73 74 76 74 74 75 75 73 73 73 73 72 74 75 75 75 75 76 76 78 76 78 79 78 78 78 78 79 80 80 80 80 80 79 79
74 73 74 80 76 74 73 74 75 74 75 74 74 74 75 76 74 73 74 74 75 75 75 75 75 75 75 75 76 77 77 77 77 78 78 78 78 80 80 80 80 79 79
74 73 73 75 75 74 74 75 75 75 76 76 75 76 76 77 77 74 74 74 75 75 76 76 75 76 74 75 77 77 76 76 77 80 77 78 78 79 78 78 79 79 79
74 74 74 75 74 74 74 74 75 75 76 77 76 78 78 78 77 75 75 75 75 76 75 75 75 74 75 76 80 78 76 76 77 76 78 79 78 78 78 77 78 79 79
75 74 73 73 73 72 73 73 72 74 75 76 76 80 78 78 78 75 75 75 75 75 75 76 74 74 74 75 75 75 75 77 76 76 77 77 77 78 77 76 76 77 77
75 74 73 73 72 73 74 74 74 74 75 76 77 78 78 79 78 77 74 74 74 74 74 74 75 72 73 73 73 72 72 74 75 76 76 76 76 77 77 76 76 75 76
75 74 74 73 72 73 74 74 74 75 75 75 75 76 78 79 78 77 76 75 73 73 73 73 74 74 72 72 72 74 70 70 69 73 73 74 74 75 76 76 76 75 75
76 76 74 73 72 73 74 75 74 74 73 74 75 76 78 79 79 78 76 76 73 72 72 74 74 73 72 72 71 72 70 72 71 70 72 72 72 72 72 73 75 75 75
78 77 75 73 72 73 73 74 74 73 74 74 74 75 76 77 79 80 78 77 74 72 72 73 73 72 72 71 71 70 69 68 67 68 67 69 71 72 73 72 73 74 74
79 78 77 73 72 72 73 74 74 74 73 73 73 74 74 76 78 79 79 77 75 73 72 72 72 71 70 70 70 69 70 71 69 68 67 67 67 71 72 72 72 72 73

GFSSE_sfc_temp_240.txt.gz
Temp
88 89 83 83 84 84 84 83 83 83 83 83 83 84 84 84 84 84 84 84 84 83 84 84 85 85 84 84 84 84 84 84 84 84 84 83 83 83 83 84 86 92 83
92 91 82 82 83 84 84 84 83 83 83 83 84 84 83 84 84 84 84 84 85 85 84 84 84 84 84 84 84 84 84 84 84 84 84 84 83 83 84 83 84 87 83
92 91 88 82 84 83 83 83 83 83 83 83 84 83 84 83 84 84 84 84 84 85 85 84 84 84 84 84 84 83 83 83 83 84 87 96 91 83 83 83 83 83 82
91 92 91 82 83 83 83 82 83 84 84 83 83 83 83 83 84 84 84 84 84 85 84 85 84 84 84 84 83 83 83 83 84 86 95 96 94 83 83 83 83 83 82
92 94 89 82 83 83 83 83 83 83 83 83 83 83 84 84 84 84 84 84 84 85 84 85 85 84 84 84 83 83 82 83 85 91 91 91 90 86 83 83 85 83 81
93 92 85 83 83 83 83 82 83 83 84 83 84 83 84 84 84 84 84 84 84 84 84 85 84 84 83 82 83 82 82 82 87 95 93 91 91 82 82 83 82 82 81
93 93 89 83 83 83 83 83 83 83 83 83 84 84 84 84 84 84 83 84 84 84 84 84 84 84 84 83 82 82 82 84 94 93 93 92 89 82 82 82 82 82 82
94 93 90 83 83 82 83 83 83 83 83 83 83 84 83 83 83 84 84 84 84 84 84 84 84 84 84 83 83 82 82 85 94 93 94 92 82 82 82 82 82 82 82
95 93 92 91 86 83 83 83 83 83 83 83 84 83 84 84 84 84 84 84 84 84 84 84 84 84 84 84 83 82 82 84 96 95 96 93 81 82 82 82 82 81 81
93 93 92 91 92 91 91 83 83 82 84 84 84 84 84 84 84 84 83 83 84 84 84 84 84 83 83 83 83 83 82 84 98 96 94 89 82 82 82 82 81 81 80
91 93 93 93 90 91 91 88 84 83 84 84 84 84 84 93 92 89 85 84 84 84 84 84 84 83 83 83 83 82 84 96 98 98 95 81 81 82 81 81 80 80 80
90 92 95 94 92 92 95 90 89 89 88 84 89 89 93 92 91 91 88 84 84 84 84 84 83 83 84 98 95 87 98 98 97 97 91 81 82 82 81 81 80 80 80
91 92 93 94 92 95 93 94 94 94 91 89 88 87 88 90 89 90 90 91 90 86 94 91 90 97 94 98 97 97 97 98 99 98 87 81 81 82 81 80 80 80 80
91 92 94 93 91 92 93 94 94 93 93 94 92 88 86 89 90 90 89 91 91 95 92 93 96 94 95 94 95 97 98 98 98 99 88 82 81 81 81 81 80 80 80
89 91 92 90 88 89 88 92 91 94 95 93 92 90 94 92 89 92 91 93 93 94 94 93 93 94 93 95 97 95 98 97 98 98 97 82 81 81 81 81 81 80 80
91 90 92 89 88 89 89 88 91 94 93 95 94 92 90 93 89 90 91 93 93 94 95 94 93 94 97 99 97 96 96 100 97 96 100 93 81 81 81 81 81 80 80
92 92 90 90 90 88 88 89 92 94 96 94 94 90 89 91 89 90 93 94 94 93 91 91 91 95 98 101 95 99 99 97 99 96 98 99 91 80 81 81 81 80 80
92 90 91 94 91 90 89 90 94 94 96 95 95 93 90 90 90 91 93 94 94 94 95 96 96 97 98 99 96 98 99 99 97 96 97 97 100 100 83 81 81 80 80
92 89 89 90 91 90 89 92 93 91 95 96 96 96 90 92 92 94 96 94 91 96 97 97 97 95 94 97 98 99 99 98 98 101 95 94 95 96 98 81 80 80 80
92 90 89 90 90 89 91 90 94 95 95 96 96 97 93 94 91 93 95 92 94 96 96 97 92 96 95 96 98 100 98 99 100 98 97 99 99 96 97 94 94 93 80
92 90 89 88 87 89 90 89 91 93 94 95 97 93 92 94 93 91 96 93 94 95 94 91 92 90 96 97 93 98 99 99 99 101 103 100 98 98 97 95 94 96 94
91 90 88 88 87 89 91 91 92 95 96 97 97 94 94 94 92 93 93 93 93 95 91 90 89 95 96 96 92 92 92 95 100 101 100 99 98 99 98 97 94 92 92
91 89 89 88 88 89 91 91 90 93 94 93 93 95 94 93 93 93 92 94 91 93 95 91 91 89 94 95 90 90 89 88 92 98 97 98 93 96 97 97 95 93 91
92 92 91 89 88 89 89 90 89 90 91 94 94 96 95 94 94 94 92 92 90 95 93 92 93 90 88 92 94 95 89 88 87 89 100 98 98 96 93 96 96 94 91
93 93 92 89 88 89 88 90 90 90 94 95 96 91 91 92 93 95 93 92 90 93 90 90 89 87 93 91 94 94 89 93 90 88 89 93 98 99 98 98 96 96 95
94 94 92 88 86 87 87 88 88 89 91 93 92 92 94 96 95 92 93 91 90 91 89 90 88 87 87 89 92 91 92 91 92 90 89 90 89 96 98 99 98 96 97

GFSSE_sfc_temp_243.txt.gz
Temp
89 88 83 84 84 83 83 83 83 83 83 83 84 84 84 84 83 83 83 84 84 83 84 85 83 84 84 84 84 83 84 84 84 84 84 83 83 82 83 85 87 90 83
94 91 83 83 84 84 84 83 83 83 84 84 84 83 84 84 84 84 84 83 83 84 85 85 85 84 83 83 83 83 84 84 84 84 83 84 83 83 83 83 84 86 83
89 91 89 83 83 84 84 84 83 83 84 84 84 83 84 84 84 84 83 85 85 84 84 84 84 84 84 83 83 83 84 84 84 85 86 93 89 83 83 83 83 83 83
93 89 90 82 83 83 83 83 83 84 84 84 83 83 84 83 84 85 85 83 84 85 84 84 84 84 84 83 83 83 83 83 84 87 86 92 92 83 83 83 82 83 82
92 95 88 83 83 83 83 83 83 83 83 84 84 84 84 84 84 84 84 84 85 85 85 85 85 84 84 83 83 83 83 83 85 92 91 87 90 85 83 83 85 83 81
93 91 85 83 83 83 83 83 83 83 83 84 83 85 85 85 84 84 85 85 85 85 85 84 84 84 84 83 83 82 83 84 87 90 88 90 88 83 83 83 83 82 82
91 92 89 83 83 83 83 83 83 84 83 84 84 84 84 84 84 84 85 85 84 85 85 84 85 85 83 83 83 83 83 85 96 95 92 89 87 82 82 82 82 82 82
97 93 90 83 83 83 83 83 83 83 84 84 84 84 84 83 84 84 84 84 84 84 84 84 85 84 84 83 83 83 83 85 96 87 91 89 82 82 82 82 82 82 82
99 94 92 90 85 84 83 84 83 83 83 84 84 83 83 84 84 84 84 84 84 84 84 84 84 84 84 83 83 83 84 87 96 85 94 90 81 82 82 82 82 81 81
98 97 94 91 92 91 90 83 83 83 84 84 84 84 84 84 84 84 83 84 84 84 84 84 84 84 84 83 83 84 84 85 98 95 91 87 82 83 82 81 81 81 80
94 97 97 95 93 92 90 87 84 84 84 84 85 84 85 92 90 88 85 84 84 84 84 84 84 84 84 84 84 84 84 100 100 96 91 81 82 82 82 81 81 81 80
94 96 98 96 96 96 95 89 91 87 83 89 87 87 82 86 87 90 87 84 84 84 84 84 84 84 84 95 95 86 97 100 99 94 89 81 82 82 81 81 80 80 80
95 97 98 97 96 97 92 91 93 92 93 90 86 88 88 91 90 93 89 90 89 85 92 89 91 93 96 100 100 100 100 101 100 95 86 82 82 82 81 81 80 80 80
95 96 99 97 93 89 94 83 84 95 90 88 92 88 90 82 85 90 93 93 91 93 94 94 98 96 97 97 98 100 100 100 100 96 86 82 82 82 81 81 80 80 80
93 94 95 94 91 92 89 91 81 96 87 92 94 80 80 85 83 84 93 95 96 95 96 96 94 96 96 98 99 99 100 99 100 100 92 82 82 82 82 82 81 80 80
94 94 94 92 91 92 89 91 93 87 94 85 92 93 93 94 91 93 93 95 95 97 97 96 94 95 97 100 98 98 99 101 98 98 99 89 82 82 82 82 82 81 81
95 96 92 92 92 90 90 90 86 96 91 96 92 92 92 92 91 92 95 95 96 95 94 93 93 96 98 100 96 98 101 99 100 97 99 99 89 81 82 82 82 81 81
96 93 93 97 94 91 91 93 86 96 98 98 96 94 92 92 92 94 96 96 96 94 96 96 96 98 99 98 96 99 100 100 98 98 100 99 99 97 83 81 81 81 81
95 92 91 94 94 92 91 94 91 93 95 98 98 96 92 93 93 96 98 95 93 98 93 98 98 96 94 97 99 99 99 100 100 102 98 97 98 98 99 81 81 80 81
94 93 92 93 92 91 92 92 95 95 93 99 98 91 94 95 93 95 97 94 94 98 97 98 92 96 95 96 100 100 100 101 102 101 101 101 102 99 99 96 89 89 80
94 91 91 91 89 91 92 92 93 87 93 88 89 95 95 94 94 93 97 94 94 97 92 93 93 91 96 97 94 98 99 101 101 104 103 103 101 101 100 97 95 97 90
93 91 90 90 88 90 93 94 92 93 90 92 85 95 96 95 94 95 94 94 94 94 92 92 91 94 97 96 92 93 92 96 102 102 101 102 99 101 101 99 96 95 94
92 91 90 89 88 91 94 94 91 86 96 95 94 95 95 95 94 96 94 95 93 93 94 92 92 91 92 95 92 90 88 87 92 100 98 99 94 97 97 98 97 95 94
94 94 91 90 89 91 92 92 90 90 93 96 96 97 95 94 95 95 94 94 92 96 93 93 94 91 90 92 95 96 90 87 86 88 99 98 96 97 95 97 97 95 93
96 94 93 90 89 91 91 91 91 90 96 97 99 91 94 93 95 97 94 93 92 94 93 91 91 88 93 92 94 94 92 93 90 88 88 94 99 101 101 98 96 97 96
97 96 92 89 88 89 89 89 90 90 94 95 95 93 94 96 95 95 95 92 92 93 91 91 90 89 89 89 91 91 93 92 92 91 89 90 91 97 100 101 98 97 97

GFSSE_sfc_temp_249.txt.gz
Temp
76 79 83 83 84 84 84 83 83 83 83 83 83 83 84 84 83 82 82 81 81 80 83 84 84 84 84 84 84 84 84 84 83 84 84 84 83 84 84 84 84 83 83
79 81 82 83 83 83 82 83 83 83 83 83 83 83 83 84 84 83 82 80 81 83 83 84 83 84 84 84 84 83 83 84 84 84 84 84 84 83 83 84 83 82 83
80 81 83 82 83 83 83 83 83 83 83 83 83 83 83 83 84 83 83 83 84 84 83 84 84 84 84 84 84 84 84 84 84 85 84 81 82 83 83 83 83 83 82
81 80 80 82 83 83 83 83 83 84 84 83 83 83 83 83 83 84 84 84 84 85 84 84 84 84 84 83 84 84 84 84 84 85 82 82 84 83 83 82 82 82 82
81 80 81 83 83 83 83 83 83 83 83 83 84 83 84 84 84 84 85 84 84 84 84 84 84 83 83 83 83 83 84 85 85 84 80 76 77 83 82 83 82 82 82
81 81 82 83 84 83 83 83 83 83 83 83 83 84 84 84 84 84 84 84 84 84 84 84 84 84 83 83 83 83 84 85 84 81 79 80 77 82 82 82 82 82 81
79 80 81 83 83 83 83 83 83 83 83 83 84 84 84 84 84 84 84 84 84 84 84 84 84 84 83 83 83 83 84 86 83 80 78 77 77 81 82 82 82 81 81
80 79 81 82 83 83 83 83 83 84 84 84 84 84 84 84 84 84 84 84 84 84 84 84 84 84 83 84 84 84 85 86 83 79 77 76 79 81 82 81 81 81 81
82 79 78 79 82 83 83 83 84 84 84 84 84 83 84 84 84 84 84 84 84 84 84 84 84 84 84 84 84 84 84 85 80 78 80 75 80 81 81 80 80 80 80
80 80 78 77 78 78 79 83 83 83 83 84 84 84 84 84 84 84 82 83 84 84 84 84 84 84 83 83 84 84 85 85 80 77 76 76 80 82 81 81 80 80 80
81 80 79 78 77 77 78 82 82 84 84 84 83 84 82 77 79 81 82 84 84 84 84 84 84 83 83 84 83 84 84 82 79 76 74 79 80 81 81 80 80 80 80
79 80 80 80 79 79 84 78 77 80 77 76 76 77 75 76 76 80 82 84 84 84 84 84 83 83 84 80 83 83 80 81 79 76 74 80 80 81 80 80 80 80 80
83 82 83 82 82 80 80 76 75 77 75 76 76 75 75 78 78 77 75 78 76 82 79 81 81 81 80 80 81 80 82 80 78 78 79 80 80 81 80 80 80 80 79
86 85 84 86 83 79 77 75 73 74 74 75 75 75 74 76 75 74 74 75 75 76 77 78 77 79 79 81 82 84 84 81 77 77 77 80 80 81 81 80 80 80 79
86 83 82 81 79 72 75 74 73 72 74 76 77 76 75 77 75 76 76 77 76 77 78 79 78 81 83 84 85 86 85 82 79 78 75 82 80 80 81 81 80 80 80
84 82 82 81 75 77 75 73 73 71 76 76 77 78 78 77 77 78 77 81 78 78 80 79 82 82 82 82 85 87 85 84 82 79 77 78 81 80 81 81 81 80 80
84 83 81 81 81 80 75 75 74 73 77 76 77 79 80 78 78 78 81 80 80 80 81 80 80 80 81 83 84 84 84 86 83 81 79 77 79 80 80 81 81 80 80
83 82 82 87 81 80 79 77 76 78 79 79 79 79 80 80 80 80 79 78 80 80 80 79 79 79 79 80 80 81 82 84 85 84 81 79 78 80 80 80 80 80 80
83 82 80 81 80 80 79 79 80 81 79 80 79 80 80 82 82 80 78 79 79 78 78 80 80 78 80 79 82 81 81 81 83 89 83 81 79 79 78 80 80 80 81
83 82 80 82 79 79 80 77 78 80 82 81 81 79 81 81 82 81 79 79 80 80 81 79 78 80 79 79 87 85 81 81 82 81 83 86 83 81 78 78 78 78 80
83 81 79 80 78 78 76 76 76 80 78 82 82 81 81 81 83 84 80 79 84 81 80 80 78 78 78 79 77 78 78 81 81 81 82 81 84 84 80 78 75 75 78
81 80 78 82 78 80 78 77 78 79 79 86 83 83 82 82 82 82 80 79 84 80 79 79 78 77 77 78 75 73 72 77 78 80 80 83 81 81 82 81 78 79 76
81 80 78 83 78 78 79 78 78 80 79 78 77 80 82 82 82 82 81 80 81 79 77 77 78 78 74 77 78 75 69 68 70 76 79 78 79 78 79 82 83 82 80
82 83 78 80 78 80 78 79 78 76 75 77 80 79 84 82 83 84 83 82 80 79 78 78 80 77 76 74 76 80 75 74 69 69 74 76 77 79 78 78 80 82 81
84 83 81 80 78 80 78 79 79 76 79 81 78 78 78 80 83 84 83 82 80 79 79 79 77 76 76 74 73 73 73 72 71 69 67 72 74 77 78 78 79 80 81
85 84 82 79 79 77 78 79 78 78 78 78 77 79 78 78 80 81 82 80 80 79 79 78 77 78 76 75 74 73 72 71 71 69 67 68 70 76 78 79 78 80 79